STARLINK-34278

Last updated on Thu Jul 03 2025 00:02:07 GMT+0000 (Coordinated Universal Time)

1 64391U 25127X 25183.58335648 -.01561519 00000+0 -18734-1 0 9994 2 64391 43.0001 155.3370 0001276 274.1356 351.8809 15.63123655 4208
UTC large
Height (km)
Speed (km/s)
/
Latitude / Longitude
Inclination (degrees)
Orbital Period (minutes)
Azimuth
Elevation
Range (km)
Doppler Factor

Next 0 passes for location: London (51.5072 / 0.1276)

Sorry there are no passes over London.